{"data":{"norad_id":54080,"intl_designator":"2022-136AF","name":"STARLINK-5160","alt_names":[],"object_type":"PAYLOAD","status":"ACTIVE","operator":null,"country":"US","launch_date":"2022-10-20","launch_site_code":"AFETR","launch_vehicle":null,"mission":null,"orbit_class":"UNKNOWN","rcs_meters":null,"size_class":null,"mass_kg":null,"dimensions":null,"purposes":["comms"],"wikipedia_slug":null,"has_3d_model":false,"image_url":null,"decayed_at":null,"tle_current":{"epoch":"2026-05-25T04:00:03.998880Z","epoch_age_seconds":60719,"freshness":"FRESH","line1":"1 54080U 22136AF  26145.16671295  .01272413  00000+0  63674-2 0  9993","line2":"2 54080  53.2165 343.3392 0002040  90.2498 338.0787 15.78782061  5912","mean_motion":15.78782061,"eccentricity":0.000204,"inclination_deg":53.2165,"raan_deg":343.3392,"arg_perigee_deg":90.2498,"mean_anomaly_deg":338.0787,"bstar":0.0063674,"rev_number":591,"period_min":91.209549156386,"perigee_km":332.52112437473,"apogee_km":335.25963154494,"semimajor_km":6712.0273779598,"source":"CELESTRAK","updated_at":"2026-05-25T13:38:17.653128Z"}}}